Shannon, Ireland

9:26 AM GMT on January 22, 2018 (GMT +0000)
Shannon

Weather History for EINN - February, 2011

Change the Weather History Date:

Monday, February 7, 2011

  Actual Average Record
Temperature  
Mean Temperature 42 °F -  
Max Temperature 48 °F 48 °F 59 °F (2008)
Min Temperature 37 °F 37 °F 26 °F (2007)
Degree Days  
Heating Degree Days 22    
Moisture  
Dew Point 41 °F    
Average Humidity 87    
Maximum Humidity 100    
Minimum Humidity 62    
Precipitation  
Precipitation 0.12 in 0.09 in - ()
Sea Level Pressure  
Sea Level Pressure 29.76 in    
Wind  
Wind Speed 16 mph ()    
Max Wind Speed 38 mph    
Max Gust Speed 56 mph    
Visibility 6.5 miles    
Events Rain    
Averages and records for this station are not official NWS values.
T = Trace of Precipitation, MM = Missing Value Source: Averaged Metar Reports

Daily Weather History Graph

Daily Weather History Graph

Search for Another Location

Airport or City:

Trip Planner

Search our weather history database for the weather conditions in past years. The results will help you decide how hot, cold, wet, or windy it might be!

Date:

Astronomy

Feb. 07, 2011 Rise Set
Actual Time 8:08 AM GMT 5:32 PM GMT
Civil Twilight 7:31 AM GMT 6:08 PM GMT
Nautical Twilight 6:51 AM GMT 6:49 PM GMT
Astronomical Twilight 6:11 AM GMT 7:29 PM GMT
Moon 9:02 AM GMT (2/7) 10:49 PM GMT (2/7)
Length of Visible Light 10h 36m
Length of Day
9h 23m
Waxing Crescent, 17% of the Moon is Illuminated
Feb 7
Waxing Crescent
Feb 11
First Quarter
Feb 18
Full
Feb 24
Last Quarter
Mar 4
New

Hourly Weather History & Observations

Time (GMT) Temp. Windchill Dew Point Humidity Pressure Visibility Wind Dir Wind Speed Gust Speed Precip Events Conditions
12:00 AM 50 °F - 49 °F 95% 29.57 in 7 mi SSE 20.1 mph - - Rain Light Rain
12:00 AM 50.0 °F - 48.2 °F 94% 29.56 in 6.2 mi SSE 20.7 mph - N/A Rain Light Rain
12:30 AM 50.0 °F - 48.2 °F 94% 29.53 in 6.2 mi SSE 21.9 mph - N/A Rain Light Rain
1:00 AM 50.0 °F - 50.0 °F 100% 29.50 in 6.2 mi SSE 20.7 mph 35.7 mph N/A Rain Light Rain
1:30 AM 50.0 °F - 50.0 °F 100% 29.47 in 6.2 mi SSE 23.0 mph - N/A Rain Light Rain
2:00 AM 50.0 °F - 50.0 °F 100% 29.44 in 6.2 mi South 20.7 mph - N/A Rain Light Rain
2:30 AM 51.8 °F - 48.2 °F 88% 29.42 in 6.2 mi South 19.6 mph - N/A   Mostly Cloudy
3:00 AM 51.8 °F - 48.2 °F 88% 29.42 in 6.2 mi South 24.2 mph - N/A Rain Light Rain
3:30 AM 51.8 °F - 48.2 °F 88% 29.39 in 6.2 mi South 21.9 mph - N/A Rain Light Rain
4:00 AM 51.8 °F - 48.2 °F 88% 29.33 in 6.2 mi South 23.0 mph - N/A   Mostly Cloudy
4:30 AM 51.8 °F - 46.4 °F 82% 29.33 in 6.2 mi South 26.5 mph - N/A   Mostly Cloudy
5:00 AM 51.8 °F - 44.6 °F 76% 29.30 in 6.2 mi South 24.2 mph - N/A   Mostly Cloudy
5:30 AM 50.0 °F - 44.6 °F 82% 29.30 in 6.2 mi SSW 20.7 mph - N/A   Mostly Cloudy
6:00 AM 49 °F - 45 °F 83% 29.33 in 12 mi SSW 24.6 mph - -   Partly Cloudy
6:00 AM 48.2 °F - 44.6 °F 87% 29.33 in 6.2 mi SSW 24.2 mph - N/A   Mostly Cloudy
6:30 AM 42.8 °F 32.3 °F 41.0 °F 93% 29.39 in 6.2 mi WSW 29.9 mph - N/A   Mostly Cloudy
7:00 AM 42.8 °F 31.1 °F 39.2 °F 87% 29.44 in 6.2 mi West 38.0 mph 56.4 mph N/A Rain Light Rain
7:30 AM 41.0 °F 31.1 °F 39.2 °F 93% 29.56 in 5.6 mi WNW 23.0 mph 35.7 mph N/A Rain Light Rain
8:00 AM 42.8 °F 33.1 °F 39.2 °F 87% 29.62 in 6.2 mi WNW 25.3 mph 40.3 mph N/A   Mostly Cloudy
8:30 AM 42.8 °F 34.5 °F 39.2 °F 87% 29.68 in 6.2 mi West 18.4 mph - N/A   Partly Cloudy
9:00 AM 42.8 °F 35.1 °F 39.2 °F 87% 29.74 in 6.2 mi West 16.1 mph - N/A   Scattered Clouds
9:30 AM 44.6 °F 38.8 °F 41.0 °F 87% 29.77 in 6.2 mi West 11.5 mph - N/A   Scattered Clouds
10:00 AM 46.4 °F 41.5 °F 41.0 °F 81% 29.77 in 6.2 mi West 10.4 mph - N/A   Mostly Cloudy
10:30 AM 46.4 °F 40.4 °F 41.0 °F 81% 29.80 in 6.2 mi WSW 13.8 mph - N/A   Scattered Clouds
11:00 AM 44.6 °F 36.4 °F 41.0 °F 87% 29.83 in 6.2 mi West 20.7 mph 36.8 mph N/A   Mostly Cloudy
11:30 AM 44.6 °F 38.1 °F 42.8 °F 93% 29.86 in 6.2 mi West 13.8 mph - N/A   Partly Cloudy
12:00 PM 47 °F - 41 °F 72% 29.88 in 12 mi West 17.9 mph - - Rain Light Rain Showers
12:00 PM 46.4 °F 39.5 °F 41.0 °F 81% 29.86 in 6.2 mi West 17.3 mph - N/A   Scattered Clouds
12:30 PM 46.4 °F 39.5 °F 41.0 °F 81% 29.89 in 6.2 mi West 17.3 mph - N/A   Scattered Clouds
1:00 PM 46.4 °F 39.5 °F 39.2 °F 76% 29.89 in 6.2 mi West 17.3 mph - N/A Rain Light Rain Showers
1:30 PM 46.4 °F 41.9 °F 41.0 °F 81% 29.89 in 6.2 mi West 9.2 mph - N/A   Scattered Clouds
2:00 PM 48.2 °F - 39.2 °F 71% 29.92 in 6.2 mi West 15.0 mph - N/A   Scattered Clouds
2:30 PM 48.2 °F - 35.6 °F 62% 29.92 in 6.2 mi West 17.3 mph - N/A   Partly Cloudy
3:00 PM 46.4 °F 39.0 °F 35.6 °F 66% 29.95 in 6.2 mi West 19.6 mph - N/A   Partly Cloudy
3:30 PM 46.4 °F 40.7 °F 37.4 °F 71% 29.95 in 6.2 mi West 12.7 mph - N/A   Scattered Clouds
4:00 PM 46.4 °F 40.4 °F 37.4 °F 71% 29.95 in 6.2 mi West 13.8 mph - N/A   Mostly Cloudy
4:30 PM 42.8 °F 37.0 °F 41.0 °F 93% 29.98 in 6.2 mi West 10.4 mph - N/A   Scattered Clouds
5:00 PM 44.6 °F 39.7 °F 41.0 °F 87% 29.98 in 6.2 mi West 9.2 mph - N/A   Scattered Clouds
5:30 PM 42.8 °F 38.0 °F 39.2 °F 87% 30.01 in 6.2 mi West 8.1 mph - N/A   Partly Cloudy
6:00 PM 41 °F - 37 °F 82% 30.03 in 12 mi West 6.7 mph - -   Partly Cloudy
6:00 PM 41.0 °F 37.1 °F 37.4 °F 87% 30.01 in 6.2 mi West 5.8 mph - N/A   Partly Cloudy
6:30 PM 41.0 °F 38.0 °F 37.4 °F 87% 30.04 in 6.2 mi WSW 4.6 mph - N/A   Partly Cloudy
7:00 PM 41.0 °F 39.0 °F 39.2 °F 93% 30.04 in 6.2 mi SW 3.5 mph - N/A   Partly Cloudy
7:30 PM 39.2 °F - 37.4 °F 93% 30.04 in 6.2 mi Calm Calm - N/A   Partly Cloudy
8:00 PM 39.2 °F - 37.4 °F 93% 30.06 in 6.2 mi SSE 2.3 mph - N/A   Partly Cloudy
8:30 PM 39.2 °F 35.9 °F 37.4 °F 93% 30.06 in 6.2 mi South 4.6 mph - N/A   Partly Cloudy
9:00 PM 39.2 °F 35.0 °F 37.4 °F 93% 30.06 in 6.2 mi South 5.8 mph - N/A   Partly Cloudy
9:30 PM 37.4 °F - 37.4 °F 100% 30.06 in 6.2 mi South 2.3 mph - N/A   Partly Cloudy
10:00 PM 37.4 °F - 37.4 °F 100% 30.06 in 6.2 mi South 2.3 mph - N/A   Partly Cloudy
10:30 PM 37.4 °F 34.9 °F 37.4 °F 100% 30.06 in 6.2 mi SSE 3.5 mph - N/A   Partly Cloudy
11:00 PM 37.4 °F 33.8 °F 37.4 °F 100% 30.06 in 6.2 mi SSE 4.6 mph - N/A   Partly Cloudy
11:30 PM 37.4 °F 33.8 °F 35.6 °F 93% 30.09 in 6.2 mi SE 4.6 mph - N/A   Partly Cloudy